Aérodrome :
LOGIN :

S'inscrire | Disclaimer

   EN    FR    IT 

 










Légende :    VFR   VFR Marginal   IFR   IFR Intensif   IFR Très Intensif
Visi : 
Plafond : 
>= 8 km
>= 3000ft
5 à 8 km
1000 à 3000 ft
1500m à 5 km
500 à 1000 ft
800 à 1500m
200 à 500 ft
< 800m
< 200 ft
Symboles :   Orages  Brouillard  Fortes neiges  Fortes précipitations  Vent > 20 kt
SIGMETs :   Divers  Orages  Givrage  Turbulence  Onde Orograph.  Cendres Volcan.







- Altitude de l'aérodrome : 863 ft
- Code IATA : ZAZ


LEZG - Zaragoza Aragon

DERNIER METAR :
  • 250030Z VRB02KT CAVOK 16/11 Q1017

METARs EXPIRÉS :
  • 250000Z 12002KT CAVOK 16/11 Q1017
  • 242330Z 00000KT CAVOK 17/11 Q1017
  • 242300Z 14003KT CAVOK 17/10 Q1017
  • 242230Z 14003KT CAVOK 17/12 Q1017
  • 242200Z VRB01KT CAVOK 18/12 Q1017

TAF TAF LEZG
Valide du 25 à 00h jusqu'au 26 à 00h UTC


242300Z 2500/2524 VRB03KT 9999 FEW060 TX27/2514Z TN11/2506Z
BECMG 2507/2509 31010KT
BECMG 2517/2519 31020KT
Pas de NOTAMs connus pour ce terrain.



MET'MAP, la Météo Aéronautique d'un coup d'oeil ! - Copyright ORBIFLY Décembre 2007 - Disclaimer

ORBIFLY MET'MAP TEAM :

Programmation & Développement : Alexandra Zaïnal
Conception & Développement : Baudouin d'Aumeries
Co-Programmation & Développement : Marc-Olivier Méhu
Soutien technique & logistique : Manuel Goepfert

Contact : metmap@orbifly.com




SOURCES & CREDITS :

   NOAA